Station Historical Data
Daily Summary for July 10, 2017 Units:  English    Metric   Both
Next Day »
Daily Weekly Monthly Yearly Custom
  High: Low: Average:
Temperature: 92.0 °F 70.5 °F 79.3 °F
Dew Point: 56.3 °F 42.3 °F 48.8 °F
Humidity: 47% 19% 36%
Wind Speed: 12.0mph 0.0mph 3.6mph
Wind Gust: 20.0mph - -
Wind- - SSE
Pressure: 29.87 in 29.81 in -
Precipitation: 0.00 in    
Historical Graphs
 
 
Tabular Data for July 10, 2017
Time Temperature Dew Point Pressure Wind Wind Speed Wind Gust Humidity Rainfall Rate (Hourly) solar Conditions
00:01 74.8 °F 48.9 °F 29.84 in Calm   12.0 mph 40% 0.00 in 0.00 W/m2
00:06 74.7 °F 48.8 °F 29.83 in Calm   14.0 mph 40% 0.00 in 0.00 W/m2
00:11 74.7 °F 48.8 °F 29.83 in ESE 5.0 mph 13.0 mph 40% 0.00 in 0.00 W/m2
00:16 74.6 °F 48.7 °F 29.83 in Calm   13.0 mph 40% 0.00 in 0.00 W/m2
00:21 74.6 °F 48.7 °F 29.83 in ESE 6.0 mph 14.0 mph 40% 0.00 in 0.00 W/m2
00:26 74.5 °F 48.6 °F 29.83 in ESE 4.0 mph 9.0 mph 40% 0.00 in 0.00 W/m2
00:31 74.5 °F 48.6 °F 29.83 in ESE 4.0 mph 4.0 mph 40% 0.00 in 0.00 W/m2
00:36 74.5 °F 48.6 °F 29.83 in ESE 12.0 mph 12.0 mph 40% 0.00 in 0.00 W/m2
00:41 74.5 °F 47.9 °F 29.83 in ESE 1.0 mph 7.0 mph 39% 0.00 in 0.00 W/m2
00:46 74.5 °F 48.6 °F 29.83 in ESE 4.0 mph 14.0 mph 40% 0.00 in 0.00 W/m2
00:51 74.4 °F 47.9 °F 29.83 in ESE 4.0 mph 12.0 mph 39% 0.00 in 0.00 W/m2
00:53 74.4 °F 48.5 °F 29.83 in East 2.0 mph 14.0 mph 40% 0.00 in 0.00 W/m2
00:58 74.4 °F 47.9 °F 29.83 in East 2.0 mph 14.0 mph 39% 0.00 in 0.00 W/m2
01:03 74.4 °F 47.9 °F 29.82 in ESE 5.0 mph 19.0 mph 39% 0.00 in 0.00 W/m2
01:08 74.4 °F 48.5 °F 29.82 in ESE 9.0 mph 15.0 mph 40% 0.00 in 0.00 W/m2
01:13 74.4 °F 47.9 °F 29.83 in SE 9.0 mph 13.0 mph 39% 0.00 in 0.00 W/m2
01:18 74.4 °F 47.9 °F 29.82 in ESE 6.0 mph 13.0 mph 39% 0.00 in 0.00 W/m2
01:23 74.4 °F 47.9 °F 29.83 in ESE 5.0 mph 14.0 mph 39% 0.00 in 0.00 W/m2
01:28 74.4 °F 47.9 °F 29.83 in ESE 5.0 mph 15.0 mph 39% 0.00 in 0.00 W/m2
01:33 74.3 °F 47.8 °F 29.83 in ESE 9.0 mph 14.0 mph 39% 0.00 in 0.00 W/m2
01:38 74.3 °F 47.8 °F 29.83 in ESE 5.0 mph 14.0 mph 39% 0.00 in 0.00 W/m2
01:43 74.3 °F 47.8 °F 29.83 in ESE 9.0 mph 14.0 mph 39% 0.00 in 0.00 W/m2
01:49 74.3 °F 47.8 °F 29.83 in SE 4.0 mph 12.0 mph 39% 0.00 in 0.00 W/m2
01:53 74.2 °F 47.7 °F 29.83 in ESE 4.0 mph 11.0 mph 39% 0.00 in 0.00 W/m2
01:58 74.2 °F 47.7 °F 29.83 in ESE 7.0 mph 12.0 mph 39% 0.00 in 0.00 W/m2
02:04 74.1 °F 48.3 °F 29.82 in ESE 7.0 mph 12.0 mph 40% 0.00 in 0.00 W/m2
02:09 74.0 °F 48.2 °F 29.83 in ESE 2.0 mph 11.0 mph 40% 0.00 in 0.00 W/m2
02:14 73.9 °F 47.4 °F 29.83 in ESE 5.0 mph 12.0 mph 39% 0.00 in 0.00 W/m2
02:19 73.9 °F 48.1 °F 29.83 in ESE 6.0 mph 15.0 mph 40% 0.00 in 0.00 W/m2
02:24 73.8 °F 48.0 °F 29.83 in ESE 9.0 mph 12.0 mph 40% 0.00 in 0.00 W/m2
02:29 73.7 °F 47.9 °F 29.83 in ESE 6.0 mph 14.0 mph 40% 0.00 in 0.00 W/m2
02:34 73.6 °F 47.8 °F 29.83 in ESE 6.0 mph 16.0 mph 40% 0.00 in 0.00 W/m2
02:39 73.5 °F 47.7 °F 29.83 in ESE 4.0 mph 15.0 mph 40% 0.00 in 0.00 W/m2
02:44 73.5 °F 47.7 °F 29.83 in ESE 7.0 mph 12.0 mph 40% 0.00 in 0.00 W/m2
02:49 73.4 °F 47.6 °F 29.83 in ESE 6.0 mph 13.0 mph 40% 0.00 in 0.00 W/m2
02:54 73.3 °F 47.5 °F 29.82 in East 4.0 mph 13.0 mph 40% 0.00 in 0.00 W/m2
02:59 73.3 °F 47.5 °F 29.83 in ESE 6.0 mph 9.0 mph 40% 0.00 in 0.00 W/m2
03:04 73.2 °F 47.5 °F 29.82 in ESE 5.0 mph 9.0 mph 40% 0.00 in 0.00 W/m2
03:09 73.2 °F 47.5 °F 29.82 in ESE 5.0 mph 11.0 mph 40% 0.00 in 0.00 W/m2
03:14 73.1 °F 47.4 °F 29.82 in ESE 4.0 mph 11.0 mph 40% 0.00 in 0.00 W/m2
03:19 73.0 °F 47.3 °F 29.82 in ESE 1.0 mph 9.0 mph 40% 0.00 in 0.00 W/m2
03:24 72.9 °F 47.2 °F 29.82 in ESE 4.0 mph 8.0 mph 40% 0.00 in 0.00 W/m2
03:29 72.8 °F 47.1 °F 29.82 in ESE 1.0 mph 11.0 mph 40% 0.00 in 0.00 W/m2
03:34 72.7 °F 47.0 °F 29.83 in ESE 5.0 mph 11.0 mph 40% 0.00 in 0.00 W/m2
03:39 72.5 °F 46.8 °F 29.83 in ESE 1.0 mph 11.0 mph 40% 0.00 in 0.00 W/m2
03:44 72.4 °F 47.4 °F 29.83 in ESE 5.0 mph 8.0 mph 41% 0.00 in 0.00 W/m2
03:49 72.4 °F 47.4 °F 29.83 in ESE 1.0 mph 9.0 mph 41% 0.00 in 0.00 W/m2
03:54 72.3 °F 47.3 °F 29.82 in Calm   9.0 mph 41% 0.00 in 0.00 W/m2
03:59 72.2 °F 47.2 °F 29.82 in Calm   9.0 mph 41% 0.00 in 0.00 W/m2
04:04 72.1 °F 47.1 °F 29.82 in ESE 5.0 mph 6.0 mph 41% 0.00 in 0.00 W/m2
04:09 72.0 °F 47.0 °F 29.82 in ESE 2.0 mph 7.0 mph 41% 0.00 in 0.00 W/m2
04:14 71.9 °F 47.0 °F 29.83 in ESE 8.0 mph 12.0 mph 41% 0.00 in 0.00 W/m2
04:19 71.8 °F 46.9 °F 29.83 in ESE 6.0 mph 12.0 mph 41% 0.00 in 0.00 W/m2
04:24 71.7 °F 46.1 °F 29.83 in ESE 2.0 mph 12.0 mph 40% 0.00 in 0.00 W/m2
04:26 71.7 °F 46.1 °F 29.83 in Calm   11.0 mph 40% 0.00 in 0.00 W/m2
04:31 71.6 °F 46.0 °F 29.83 in ESE 8.0 mph 11.0 mph 40% 0.00 in 0.00 W/m2
04:36 71.5 °F 45.9 °F 29.82 in ESE 1.0 mph 6.0 mph 40% 0.00 in 0.00 W/m2
04:41 71.5 °F 46.6 °F 29.83 in ESE 6.0 mph 8.0 mph 41% 0.00 in 0.00 W/m2
04:46 71.4 °F 45.8 °F 29.83 in ESE 7.0 mph 7.0 mph 40% 0.00 in 0.00 W/m2
04:51 71.3 °F 45.8 °F 29.83 in ESE 5.0 mph 13.0 mph 40% 0.00 in 0.00 W/m2
04:56 71.3 °F 45.8 °F 29.83 in ESE 7.0 mph 8.0 mph 40% 0.00 in 0.00 W/m2
04:57 71.3 °F 45.8 °F 29.83 in ESE 9.0 mph 11.0 mph 40% 0.00 in 0.00 W/m2
05:02 71.2 °F 45.7 °F 29.83 in ESE 6.0 mph 11.0 mph 40% 0.00 in 0.00 W/m2
05:07 71.2 °F 45.7 °F 29.83 in ESE 4.0 mph 11.0 mph 40% 0.00 in 0.00 W/m2
05:12 71.1 °F 45.6 °F 29.83 in ESE 7.0 mph 11.0 mph 40% 0.00 in 0.00 W/m2
05:17 71.0 °F 46.1 °F 29.83 in ESE 7.0 mph 9.0 mph 41% 0.00 in 0.00 W/m2
05:22 71.0 °F 46.1 °F 29.83 in ESE 4.0 mph 12.0 mph 41% 0.00 in 0.00 W/m2
05:27 71.0 °F 46.1 °F 29.83 in ESE 5.0 mph 15.0 mph 41% 0.00 in 0.00 W/m2
05:28 71.0 °F 46.1 °F 29.83 in ESE 5.0 mph 15.0 mph 41% 0.00 in 0.00 W/m2
05:33 70.9 °F 45.4 °F 29.83 in ESE 6.0 mph 15.0 mph 40% 0.00 in 0.00 W/m2
05:35 71.0 °F 46.1 °F 29.83 in ESE 2.0 mph 15.0 mph 41% 0.00 in 0.00 W/m2
05:40 70.9 °F 45.4 °F 29.83 in ESE 8.0 mph 16.0 mph 40% 0.00 in 0.00 W/m2
05:45 70.9 °F 46.0 °F 29.83 in ESE 8.0 mph 16.0 mph 41% 0.00 in 5.00 W/m2
05:50 70.9 °F 45.4 °F 29.83 in Calm   20.0 mph 40% 0.00 in 7.00 W/m2
05:55 70.8 °F 45.3 °F 29.83 in East 7.0 mph 14.0 mph 40% 0.00 in 9.00 W/m2
06:00 70.8 °F 45.3 °F 29.83 in ESE 7.0 mph 15.0 mph 40% 0.00 in 11.00 W/m2
06:05 70.8 °F 45.3 °F 29.83 in ESE 8.0 mph 14.0 mph 40% 0.00 in 12.00 W/m2
06:11 70.8 °F 45.3 °F 29.83 in ESE 9.0 mph 11.0 mph 40% 0.00 in 14.00 W/m2
06:16 70.8 °F 45.3 °F 29.83 in East 9.0 mph 13.0 mph 40% 0.00 in 16.00 W/m2
06:21 70.8 °F 45.3 °F 29.84 in ESE 9.0 mph 12.0 mph 40% 0.00 in 23.00 W/m2
06:26 70.8 °F 45.3 °F 29.83 in ESE 8.0 mph 13.0 mph 40% 0.00 in 35.00 W/m2
06:31 70.8 °F 46.0 °F 29.84 in ESE 6.0 mph 12.0 mph 41% 0.00 in 46.00 W/m2
06:36 70.7 °F 45.9 °F 29.84 in ESE 7.0 mph 12.0 mph 41% 0.00 in 60.00 W/m2
06:41 70.7 °F 45.9 °F 29.84 in East 9.0 mph 15.0 mph 41% 0.00 in 70.00 W/m2
06:46 70.6 °F 45.8 °F 29.84 in ESE 1.0 mph 12.0 mph 41% 0.00 in 88.00 W/m2
06:51 70.6 °F 46.4 °F 29.84 in ESE 4.0 mph 13.0 mph 42% 0.00 in 98.00 W/m2
06:56 70.6 °F 46.4 °F 29.84 in ESE 4.0 mph 14.0 mph 42% 0.00 in 121.00 W/m2
07:01 70.6 °F 46.4 °F 29.84 in ESE 2.0 mph 14.0 mph 42% 0.00 in 142.00 W/m2
07:06 70.6 °F 47.0 °F 29.84 in SE 8.0 mph 12.0 mph 43% 0.00 in 162.00 W/m2
07:11 70.5 °F 47.0 °F 29.84 in ESE 2.0 mph 12.0 mph 43% 0.00 in 183.00 W/m2
07:16 70.5 °F 47.0 °F 29.84 in ESE 7.0 mph 15.0 mph 43% 0.00 in 204.00 W/m2
07:21 70.5 °F 47.6 °F 29.84 in SE 4.0 mph 15.0 mph 44% 0.00 in 220.00 W/m2
07:26 70.5 °F 47.6 °F 29.84 in ESE 12.0 mph 14.0 mph 44% 0.00 in 244.00 W/m2
07:31 70.5 °F 47.6 °F 29.84 in ESE 11.0 mph 18.0 mph 44% 0.00 in 264.00 W/m2
07:36 70.6 °F 47.7 °F 29.84 in ESE 5.0 mph 13.0 mph 44% 0.00 in 281.00 W/m2
07:37 70.6 °F 47.7 °F 29.84 in ESE 4.0 mph 9.0 mph 44% 0.00 in 285.00 W/m2
07:42 70.7 °F 47.7 °F 29.84 in ESE 6.0 mph 12.0 mph 44% 0.00 in 301.00 W/m2
07:47 70.8 °F 47.2 °F 29.84 in ESE 7.0 mph 12.0 mph 43% 0.00 in 320.00 W/m2
07:52 71.0 °F 48.0 °F 29.85 in ESE 4.0 mph 11.0 mph 44% 0.00 in 334.00 W/m2
07:57 71.2 °F 48.2 °F 29.84 in ESE 6.0 mph 8.0 mph 44% 0.00 in 353.00 W/m2
08:02 71.3 °F 48.3 °F 29.84 in Calm   14.0 mph 44% 0.00 in 367.00 W/m2
08:07 71.5 °F 48.5 °F 29.85 in ESE 6.0 mph 11.0 mph 44% 0.00 in 383.00 W/m2
08:12 71.7 °F 49.2 °F 29.85 in ESE 2.0 mph 12.0 mph 45% 0.00 in 399.00 W/m2
08:17 71.9 °F 49.4 °F 29.85 in ESE 4.0 mph 9.0 mph 45% 0.00 in 415.00 W/m2
08:22 72.1 °F 49.6 °F 29.85 in ESE 6.0 mph 11.0 mph 45% 0.00 in 431.00 W/m2
08:27 72.3 °F 49.8 °F 29.85 in ESE 8.0 mph 8.0 mph 45% 0.00 in 448.00 W/m2
08:32 72.5 °F 51.2 °F 29.85 in ESE 5.0 mph 14.0 mph 47% 0.00 in 461.00 W/m2
08:37 72.7 °F 50.8 °F 29.85 in Calm   9.0 mph 46% 0.00 in 478.00 W/m2
08:42 73.0 °F 51.6 °F 29.85 in SE 5.0 mph 11.0 mph 47% 0.00 in 494.00 W/m2
08:47 73.2 °F 51.2 °F 29.85 in Calm   14.0 mph 46% 0.00 in 506.00 W/m2
08:52 73.5 °F 51.5 °F 29.85 in ESE 8.0 mph 12.0 mph 46% 0.00 in 524.00 W/m2
08:57 73.8 °F 51.2 °F 29.85 in SE 8.0 mph 8.0 mph 45% 0.00 in 541.00 W/m2
09:02 74.2 °F 50.9 °F 29.85 in ESE 7.0 mph 11.0 mph 44% 0.00 in 554.00 W/m2
09:07 74.5 °F 51.8 °F 29.85 in SE 1.0 mph 7.0 mph 45% 0.00 in 570.00 W/m2
09:12 74.8 °F 52.1 °F 29.85 in ESE 9.0 mph 12.0 mph 45% 0.00 in 585.00 W/m2
09:17 75.2 °F 51.2 °F 29.85 in ESE 4.0 mph 12.0 mph 43% 0.00 in 599.00 W/m2
09:22 75.6 °F 50.9 °F 29.86 in Calm   8.0 mph 42% 0.00 in 612.00 W/m2
09:27 75.9 °F 51.8 °F 29.86 in Calm   8.0 mph 43% 0.00 in 628.00 W/m2
09:32 76.3 °F 52.2 °F 29.86 in Calm   9.0 mph 43% 0.00 in 643.00 W/m2
09:37 76.7 °F 51.9 °F 29.86 in ESE 9.0 mph 9.0 mph 42% 0.00 in 656.00 W/m2
09:42 77.1 °F 50.9 °F 29.86 in Calm   6.0 mph 40% 0.00 in 666.00 W/m2
09:47 77.5 °F 51.3 °F 29.86 in Calm   2.0 mph 40% 0.00 in 680.00 W/m2
09:52 77.9 °F 53.0 °F 29.86 in Calm   1.0 mph 42% 0.00 in 694.00 W/m2
09:57 78.2 °F 51.9 °F 29.86 in South 6.0 mph 7.0 mph 40% 0.00 in 708.00 W/m2
10:02 78.6 °F 48.7 °F 29.86 in South 5.0 mph 11.0 mph 35% 0.00 in 719.00 W/m2
10:07 79.1 °F 50.6 °F 29.86 in SSE 2.0 mph 11.0 mph 37% 0.00 in 731.00 W/m2
10:12 79.6 °F 49.6 °F 29.86 in South 7.0 mph 8.0 mph 35% 0.00 in 744.00 W/m2
10:17 80.2 °F 50.1 °F 29.87 in Calm   9.0 mph 35% 0.00 in 756.00 W/m2
10:22 80.8 °F 52.1 °F 29.87 in Calm   7.0 mph 37% 0.00 in 766.00 W/m2
10:27 81.2 °F 52.5 °F 29.86 in SW 1.0 mph 6.0 mph 37% 0.00 in 779.00 W/m2
10:32 81.5 °F 52.7 °F 29.87 in Calm     37% 0.00 in 786.00 W/m2
10:37 81.8 °F 50.7 °F 29.87 in Calm   7.0 mph 34% 0.00 in 800.00 W/m2
10:43 82.2 °F 51.1 °F 29.87 in SSW 5.0 mph 8.0 mph 34% 0.00 in 810.00 W/m2
10:48 82.6 °F 53.0 °F 29.86 in SW 4.0 mph 6.0 mph 36% 0.00 in 817.00 W/m2
10:53 82.9 °F 51.7 °F 29.87 in SSW 3.0 mph 10.0 mph 34% 0.00 in 830.00 W/m2
10:58 83.3 °F 52.8 °F 29.87 in Calm   5.0 mph 35% 0.00 in 837.00 W/m2
11:03 83.6 °F 53.8 °F 29.87 in Calm   5.0 mph 36% 0.00 in 846.00 W/m2
11:08 83.8 °F 54.8 °F 29.87 in Calm   6.0 mph 37% 0.00 in 853.00 W/m2
11:13 83.9 °F 52.6 °F 29.87 in SSW 7.0 mph 11.0 mph 34% 0.00 in 861.00 W/m2
11:18 84.2 °F 52.8 °F 29.87 in Calm   8.0 mph 34% 0.00 in 874.00 W/m2
11:23 84.5 °F 52.3 °F 29.87 in South 8.0 mph 10.0 mph 33% 0.00 in 879.00 W/m2
11:28 84.8 °F 52.5 °F 29.87 in South 7.0 mph 10.0 mph 33% 0.00 in 888.00 W/m2
11:33 85.1 °F 52.8 °F 29.87 in SSW 6.0 mph 12.0 mph 33% 0.00 in 893.00 W/m2
11:38 85.4 °F 54.7 °F 29.87 in SW 8.0 mph 8.0 mph 35% 0.00 in 900.00 W/m2
11:40 85.6 °F 52.4 °F 29.87 in SW 3.0 mph 10.0 mph 32% 0.00 in 900.00 W/m2
11:45 85.8 °F 53.4 °F 29.87 in SW 3.0 mph 6.0 mph 33% 0.00 in 907.00 W/m2
11:50 85.9 °F 53.5 °F 29.87 in Calm   10.0 mph 33% 0.00 in 918.00 W/m2
11:55 86.0 °F 51.0 °F 29.87 in South 6.0 mph 14.0 mph 30% 0.00 in 919.00 W/m2
12:00 86.2 °F 50.2 °F 29.87 in SSW 5.0 mph 13.0 mph 29% 0.00 in 926.00 W/m2
12:05 86.5 °F 49.6 °F 29.87 in Calm   10.0 mph 28% 0.00 in 932.00 W/m2
12:10 86.8 °F 48.8 °F 29.87 in SSW 3.0 mph 10.0 mph 27% 0.00 in 935.00 W/m2
12:15 87.0 °F 50.9 °F 29.87 in SSW 3.0 mph 7.0 mph 29% 0.00 in 942.00 W/m2
12:20 87.3 °F 48.3 °F 29.87 in South 6.0 mph 14.0 mph 26% 0.00 in 946.00 W/m2
12:25 87.7 °F 45.3 °F 29.87 in South 6.0 mph 14.0 mph 23% 0.00 in 944.00 W/m2
12:30 88.1 °F 45.7 °F 29.87 in Calm   12.0 mph 23% 0.00 in 949.00 W/m2
12:35 88.4 °F 47.1 °F 29.87 in SSW 11.0 mph 12.0 mph 24% 0.00 in 947.00 W/m2
12:40 88.8 °F 43.9 °F 29.86 in SSW 1.0 mph 11.0 mph 21% 0.00 in 953.00 W/m2
12:45 89.0 °F 47.6 °F 29.86 in SSW 3.0 mph 9.0 mph 24% 0.00 in 956.00 W/m2
12:50 89.5 °F 46.8 °F 29.87 in SW 9.0 mph 10.0 mph 23% 0.00 in 953.00 W/m2
12:55 89.7 °F 47.0 °F 29.86 in SW 6.0 mph 11.0 mph 23% 0.00 in 958.00 W/m2
13:00 89.5 °F 48.0 °F 29.86 in SW 8.0 mph 13.0 mph 24% 0.00 in 956.00 W/m2
13:05 89.4 °F 47.9 °F 29.86 in SSW 9.0 mph 14.0 mph 24% 0.00 in 954.00 W/m2
13:10 89.8 °F 47.1 °F 29.86 in SSW 2.0 mph 8.0 mph 23% 0.00 in 956.00 W/m2
13:15 90.4 °F 45.2 °F 29.86 in SSW 5.0 mph 14.0 mph 21% 0.00 in 951.00 W/m2
13:20 90.7 °F 45.4 °F 29.86 in Calm   10.0 mph 21% 0.00 in 953.00 W/m2
13:25 90.9 °F 48.0 °F 29.86 in South 4.0 mph 13.0 mph 23% 0.00 in 953.00 W/m2
13:30 91.4 °F 48.4 °F 29.86 in SW 6.0 mph 10.0 mph 23% 0.00 in 954.00 W/m2
13:35 91.8 °F 47.6 °F 29.86 in Calm   11.0 mph 22% 0.00 in 951.00 W/m2
13:40 91.9 °F 47.7 °F 29.86 in WSW 5.0 mph 12.0 mph 22% 0.00 in 947.00 W/m2
13:41 91.9 °F 47.7 °F 29.86 in WSW 4.0 mph 5.0 mph 22% 0.00 in 944.00 W/m2
13:46 91.3 °F 49.5 °F 29.86 in SSW 11.0 mph 12.0 mph 24% 0.00 in 946.00 W/m2
13:51 91.3 °F 48.3 °F 29.86 in SSW 8.0 mph 9.0 mph 23% 0.00 in 944.00 W/m2
13:56 91.7 °F 47.5 °F 29.86 in Calm     22% 0.00 in 932.00 W/m2
14:01 92.0 °F 47.8 °F 29.86 in Calm     22% 0.00 in 935.00 W/m2
14:06 92.0 °F 47.8 °F 29.86 in SW 8.0 mph 10.0 mph 22% 0.00 in 930.00 W/m2
14:11 92.0 °F 47.8 °F 29.85 in Calm   4.0 mph 22% 0.00 in 925.00 W/m2
14:16 91.9 °F 47.7 °F 29.86 in SW 2.0 mph 7.0 mph 22% 0.00 in 921.00 W/m2
14:21 91.6 °F 48.6 °F 29.85 in SSE 4.0 mph 8.0 mph 23% 0.00 in 912.00 W/m2
14:26 91.7 °F 45.0 °F 29.85 in Calm   7.0 mph 20% 0.00 in 907.00 W/m2
14:31 91.2 °F 45.8 °F 29.85 in Calm   7.0 mph 21% 0.00 in 902.00 W/m2
14:36 90.9 °F 48.0 °F 29.85 in WSW 6.0 mph 11.0 mph 23% 0.00 in 895.00 W/m2
14:41 90.7 °F 46.7 °F 29.85 in South 4.0 mph 9.0 mph 22% 0.00 in 889.00 W/m2
14:46 91.0 °F 46.9 °F 29.85 in SW 1.0 mph 8.0 mph 22% 0.00 in 888.00 W/m2
14:51 90.8 °F 46.8 °F 29.85 in Calm     22% 0.00 in 875.00 W/m2
14:56 90.8 °F 45.5 °F 29.85 in WSW 1.0 mph 11.0 mph 21% 0.00 in 863.00 W/m2
15:01 90.8 °F 45.5 °F 29.85 in SSW 4.0 mph 7.0 mph 21% 0.00 in 860.00 W/m2
15:06 90.9 °F 44.3 °F 29.85 in SW 3.0 mph 10.0 mph 20% 0.00 in 849.00 W/m2
15:11 91.0 °F 44.4 °F 29.85 in SW 2.0 mph 7.0 mph 20% 0.00 in 844.00 W/m2
15:16 90.9 °F 43.0 °F 29.85 in Calm   2.0 mph 19% 0.00 in 826.00 W/m2
15:21 90.8 °F 47.9 °F 29.85 in WSW 4.0 mph 4.0 mph 23% 0.00 in 824.00 W/m2
15:26 90.6 °F 44.1 °F 29.85 in South 2.0 mph 5.0 mph 20% 0.00 in 812.00 W/m2
15:31 90.6 °F 42.7 °F 29.85 in Calm   3.0 mph 19% 0.00 in 803.00 W/m2
15:36 90.6 °F 44.1 °F 29.85 in WSW 4.0 mph 9.0 mph 20% 0.00 in 793.00 W/m2
15:41 90.5 °F 44.0 °F 29.85 in SSW 5.0 mph 8.0 mph 20% 0.00 in 780.00 W/m2
15:46 90.5 °F 42.7 °F 29.85 in Calm   1.0 mph 19% 0.00 in 766.00 W/m2
15:52 90.5 °F 44.0 °F 29.84 in Calm   8.0 mph 20% 0.00 in 756.00 W/m2
15:57 90.4 °F 45.2 °F 29.85 in SSW 6.0 mph 11.0 mph 21% 0.00 in 744.00 W/m2
16:02 90.4 °F 45.2 °F 29.84 in Calm   10.0 mph 21% 0.00 in 733.00 W/m2
16:07 90.3 °F 45.1 °F 29.84 in Calm   11.0 mph 21% 0.00 in 728.00 W/m2
16:12 90.1 °F 42.3 °F 29.84 in WSW 9.0 mph 12.0 mph 19% 0.00 in 715.00 W/m2
16:17 89.9 °F 44.8 °F 29.84 in Calm   11.0 mph 21% 0.00 in 701.00 W/m2
16:22 89.5 °F 43.2 °F 29.84 in Calm   9.0 mph 20% 0.00 in 687.00 W/m2
16:27 89.4 °F 46.8 °F 29.84 in SW 6.0 mph 9.0 mph 23% 0.00 in 675.00 W/m2
16:32 89.3 °F 44.3 °F 29.83 in Calm   4.0 mph 21% 0.00 in 661.00 W/m2
16:37 89.3 °F 45.5 °F 29.83 in WSW 2.0 mph 3.0 mph 22% 0.00 in 647.00 W/m2
16:42 89.1 °F 44.1 °F 29.83 in SSW 2.0 mph 5.0 mph 21% 0.00 in 629.00 W/m2
16:47 89.1 °F 45.3 °F 29.83 in SSW 9.0 mph 9.0 mph 22% 0.00 in 615.00 W/m2
16:52 89.0 °F 44.0 °F 29.83 in SSW 1.0 mph 8.0 mph 21% 0.00 in 601.00 W/m2
16:57 89.0 °F 45.3 °F 29.83 in SSW 3.0 mph 7.0 mph 22% 0.00 in 587.00 W/m2
17:02 89.0 °F 47.6 °F 29.83 in SSE 9.0 mph 12.0 mph 24% 0.00 in 573.00 W/m2
17:07 89.0 °F 45.3 °F 29.83 in Calm   9.0 mph 22% 0.00 in 555.00 W/m2
17:12 88.9 °F 46.3 °F 29.83 in Calm   9.0 mph 23% 0.00 in 541.00 W/m2
17:17 88.9 °F 47.5 °F 29.82 in SSW 5.0 mph 8.0 mph 24% 0.00 in 527.00 W/m2
17:22 88.8 °F 47.4 °F 29.82 in SSW 10.0 mph 11.0 mph 24% 0.00 in 510.00 W/m2
17:27 88.8 °F 47.4 °F 29.82 in Calm   5.0 mph 24% 0.00 in 496.00 W/m2
17:32 88.7 °F 47.3 °F 29.82 in Calm   9.0 mph 24% 0.00 in 476.00 W/m2
17:37 88.6 °F 48.3 °F 29.82 in Calm   6.0 mph 25% 0.00 in 464.00 W/m2
17:42 88.5 °F 49.3 °F 29.82 in Calm   8.0 mph 26% 0.00 in 450.00 W/m2
17:47 88.4 °F 51.2 °F 29.82 in SSW 7.0 mph 7.0 mph 28% 0.00 in 432.00 W/m2
17:52 88.2 °F 51.0 °F 29.82 in SSW 1.0 mph 5.0 mph 28% 0.00 in 420.00 W/m2
17:57 88.1 °F 50.0 °F 29.82 in Calm   5.0 mph 27% 0.00 in 403.00 W/m2
18:02 87.9 °F 50.8 °F 29.82 in SSW 5.0 mph 5.0 mph 28% 0.00 in 387.00 W/m2
18:07 87.6 °F 51.5 °F 29.81 in Calm   8.0 mph 29% 0.00 in 367.00 W/m2
18:12 87.3 °F 51.2 °F 29.81 in Calm   1.0 mph 29% 0.00 in 352.00 W/m2
18:17 87.0 °F 51.8 °F 29.81 in Calm   7.0 mph 30% 0.00 in 336.00 W/m2
18:22 86.8 °F 51.7 °F 29.81 in SSW 5.0 mph 5.0 mph 30% 0.00 in 322.00 W/m2
18:27 86.6 °F 52.4 °F 29.81 in SW 3.0 mph 7.0 mph 31% 0.00 in 306.00 W/m2
18:33 86.4 °F 53.1 °F 29.81 in Calm   1.0 mph 32% 0.00 in 290.00 W/m2
18:38 86.1 °F 52.8 °F 29.81 in Calm     32% 0.00 in 272.00 W/m2
18:43 85.8 °F 53.4 °F 29.81 in SSW 1.0 mph 5.0 mph 33% 0.00 in 258.00 W/m2
18:48 85.5 °F 54.0 °F 29.81 in Calm   6.0 mph 34% 0.00 in 243.00 W/m2
18:53 85.1 °F 53.6 °F 29.81 in SSW 1.0 mph 7.0 mph 34% 0.00 in 225.00 W/m2
18:58 84.7 °F 54.0 °F 29.81 in Calm   1.0 mph 35% 0.00 in 209.00 W/m2
19:03 84.5 °F 54.6 °F 29.81 in SW 5.0 mph 6.0 mph 36% 0.00 in 195.00 W/m2
19:08 84.2 °F 55.1 °F 29.81 in Calm   5.0 mph 37% 0.00 in 179.00 W/m2
19:13 83.9 °F 55.6 °F 29.81 in Calm   4.0 mph 38% 0.00 in 162.00 W/m2
19:18 83.7 °F 55.4 °F 29.81 in Calm   5.0 mph 38% 0.00 in 142.00 W/m2
19:23 83.4 °F 55.9 °F 29.81 in Calm   5.0 mph 39% 0.00 in 123.00 W/m2
19:28 83.1 °F 56.3 °F 29.81 in Calm   1.0 mph 40% 0.00 in 105.00 W/m2
19:33 82.7 °F 56.0 °F 29.81 in Calm   4.0 mph 40% 0.00 in 86.00 W/m2
19:38 82.2 °F 56.2 °F 29.81 in Calm   1.0 mph 41% 0.00 in 70.00 W/m2
19:43 81.8 °F 55.1 °F 29.81 in Calm   1.0 mph 40% 0.00 in 56.00 W/m2
19:48 81.5 °F 55.5 °F 29.81 in Calm   5.0 mph 41% 0.00 in 44.00 W/m2
19:53 81.2 °F 55.3 °F 29.81 in Calm   2.0 mph 41% 0.00 in 35.00 W/m2
19:58 80.9 °F 54.3 °F 29.81 in Calm   3.0 mph 40% 0.00 in 26.00 W/m2
20:03 80.6 °F 54.1 °F 29.81 in Calm   1.0 mph 40% 0.00 in 18.00 W/m2
20:08 80.2 °F 53.7 °F 29.81 in Calm   1.0 mph 40% 0.00 in 14.00 W/m2
20:13 79.8 °F 53.4 °F 29.81 in Calm   5.0 mph 40% 0.00 in 12.00 W/m2
20:18 79.4 °F 53.7 °F 29.81 in SSW 1.0 mph 5.0 mph 41% 0.00 in 11.00 W/m2
20:23 79.0 °F 53.3 °F 29.81 in SSW 1.0 mph 4.0 mph 41% 0.00 in 9.00 W/m2
20:28 78.5 °F 52.2 °F 29.81 in Calm   5.0 mph 40% 0.00 in 7.00 W/m2
20:33 78.1 °F 52.5 °F 29.81 in Calm   3.0 mph 41% 0.00 in 5.00 W/m2
20:38 77.7 °F 51.5 °F 29.81 in Calm   6.0 mph 40% 0.00 in 0.00 W/m2
20:43 77.4 °F 51.9 °F 29.81 in South 2.0 mph 6.0 mph 41% 0.00 in 0.00 W/m2
20:48 77.0 °F 51.5 °F 29.81 in Calm   6.0 mph 41% 0.00 in 0.00 W/m2
20:53 76.8 °F 52.0 °F 29.81 in South 1.0 mph 8.0 mph 42% 0.00 in 0.00 W/m2
20:58 76.5 °F 51.7 °F 29.81 in Calm   1.0 mph 42% 0.00 in 0.00 W/m2
21:03 76.2 °F 51.5 °F 29.82 in Calm   6.0 mph 42% 0.00 in 0.00 W/m2
21:09 75.9 °F 51.2 °F 29.82 in Calm   4.0 mph 42% 0.00 in 0.00 W/m2
21:14 75.6 °F 50.9 °F 29.82 in Calm   1.0 mph 42% 0.00 in 0.00 W/m2
21:19 75.3 °F 50.7 °F 29.82 in Calm   7.0 mph 42% 0.00 in 0.00 W/m2
21:24 75.0 °F 50.4 °F 29.82 in SSE 5.0 mph 6.0 mph 42% 0.00 in 0.00 W/m2
21:29 74.8 °F 49.5 °F 29.82 in Calm   6.0 mph 41% 0.00 in 0.00 W/m2
21:34 74.7 °F 49.5 °F 29.82 in Calm   6.0 mph 41% 0.00 in 0.00 W/m2
21:39 74.6 °F 48.7 °F 29.82 in SSE 4.0 mph 7.0 mph 40% 0.00 in 0.00 W/m2
21:44 74.5 °F 48.6 °F 29.82 in SE 2.0 mph 8.0 mph 40% 0.00 in 0.00 W/m2
21:49 74.5 °F 48.6 °F 29.82 in SE 6.0 mph 8.0 mph 40% 0.00 in 0.00 W/m2
21:54 74.4 °F 48.5 °F 29.82 in SE 6.0 mph 8.0 mph 40% 0.00 in 0.00 W/m2
21:59 74.4 °F 49.2 °F 29.83 in SE 4.0 mph 9.0 mph 41% 0.00 in 0.00 W/m2
22:04 74.3 °F 49.1 °F 29.83 in SE 6.0 mph 8.0 mph 41% 0.00 in 0.00 W/m2
22:09 74.3 °F 49.1 °F 29.82 in SE 2.0 mph 9.0 mph 41% 0.00 in 0.00 W/m2
22:14 74.3 °F 49.8 °F 29.82 in Calm   11.0 mph 42% 0.00 in 0.00 W/m2
22:19 74.3 °F 49.8 °F 29.83 in SE 2.0 mph 8.0 mph 42% 0.00 in 0.00 W/m2
22:24 74.3 °F 49.8 °F 29.83 in Calm   7.0 mph 42% 0.00 in 0.00 W/m2
22:29 74.3 °F 49.8 °F 29.83 in ESE 4.0 mph 11.0 mph 42% 0.00 in 0.00 W/m2
22:34 74.3 °F 49.8 °F 29.83 in Calm   12.0 mph 42% 0.00 in 0.00 W/m2
22:39 74.3 °F 49.8 °F 29.83 in Calm   8.0 mph 42% 0.00 in 0.00 W/m2
22:44 74.3 °F 50.4 °F 29.82 in ESE 1.0 mph 12.0 mph 43% 0.00 in 0.00 W/m2
22:49 74.3 °F 50.4 °F 29.83 in Calm   9.0 mph 43% 0.00 in 0.00 W/m2
22:54 74.2 °F 50.3 °F 29.83 in ESE 1.0 mph 9.0 mph 43% 0.00 in 0.00 W/m2
22:59 74.2 °F 50.3 °F 29.83 in ESE 11.0 mph 11.0 mph 43% 0.00 in 0.00 W/m2
23:04 74.2 °F 50.3 °F 29.82 in Calm   11.0 mph 43% 0.00 in 0.00 W/m2
23:09 74.2 °F 50.3 °F 29.83 in ESE 6.0 mph 12.0 mph 43% 0.00 in 0.00 W/m2
23:14 74.1 °F 50.2 °F 29.83 in ESE 6.0 mph 15.0 mph 43% 0.00 in 0.00 W/m2
23:19 74.0 °F 50.1 °F 29.83 in ESE 7.0 mph 9.0 mph 43% 0.00 in 0.00 W/m2
23:24 74.0 °F 50.1 °F 29.82 in ESE 1.0 mph 12.0 mph 43% 0.00 in 0.00 W/m2
23:29 73.9 °F 50.0 °F 29.83 in ESE 5.0 mph 12.0 mph 43% 0.00 in 0.00 W/m2
23:34 73.7 °F 49.8 °F 29.83 in ESE 6.0 mph 13.0 mph 43% 0.00 in 0.00 W/m2
23:39 73.6 °F 49.8 °F 29.83 in East 6.0 mph 12.0 mph 43% 0.00 in 0.00 W/m2
23:44 73.5 °F 49.7 °F 29.83 in ESE 6.0 mph 13.0 mph 43% 0.00 in 0.00 W/m2
23:49 73.5 °F 49.7 °F 29.83 in ESE 4.0 mph 13.0 mph 43% 0.00 in 0.00 W/m2
23:54 73.4 °F 49.6 °F 29.83 in ESE 5.0 mph 13.0 mph 43% 0.00 in 0.00 W/m2
23:59 73.4 °F 49.6 °F 29.83 in ESE 7.0 mph 9.0 mph 43% 0.00 in 0.00 W/m2
Foresthill Weather
 WU-history PHP script courtesy of   Juneau County Weather.
powered by Cumulus v1.9.3 (1059)
Ambient Weather VWS v14.00
Top Contact Website Map Copyright © 2007 - 2018 Foresthillweather.com Never base important decisions on this or any weather information obtained from the Internet